EW4986 Weather Reports


Display with metric or nautical units.
time (UTC)temp
F
wind
direction
speed
MPH
gust
MPH
rain 1hr
in
rain 24hr
in
rain mn
in
humidity
%
barometer
mb
20210924212227 85 210 1.0 7.0 0.00 0.00 0.00 21 1020.0
20210924211724 85 217 1.0 4.0 0.00 0.00 0.00 21 1020.1
20210924211225 84 236 1.0 4.0 0.00 0.00 0.00 23 1020.1
20210924210724 84 275 1.0 4.0 0.00 0.00 0.00 23 1020.1
20210924210225 84 231 2.0 5.0 0.00 0.00 0.00 23 1020.1
20210924205725 85 209 1.0 5.0 0.00 0.00 0.00 22 1020.1
20210924205225 84 257 1.0 6.0 0.00 0.00 0.00 24 1020.2
20210924204725 83 155 1.0 6.0 0.00 0.00 0.00 23 1020.2
20210924204227 82 296 2.0 5.0 0.00 0.00 0.00 25 1020.3
20210924203724 82 288 1.0 4.0 0.00 0.00 0.00 24 1020.3
20210924203227 84 264 1.0 5.0 0.00 0.00 0.00 24 1020.4
20210924202725 85 302 1.0 5.0 0.00 0.00 0.00 24 1020.3
20210924202226 84 226 1.0 5.0 0.00 0.00 0.00 24 1020.4
20210924201726 83 264 1.0 5.0 0.00 0.00 0.00 26 1020.4
20210924201224 82 167 1.0 4.0 0.00 0.00 0.00 25 1020.5
20210924200724 82 312 1.0 4.0 0.00 0.00 0.00 24 1020.5
20210924200227 83 281 2.0 6.0 0.00 0.00 0.00 25 1020.7
20210924195725 83 229 2.0 6.0 0.00 0.00 0.00 25 1020.9
20210924195224 82 172 2.0 5.0 0.00 0.00 0.00 25 1020.9
20210924194725 81 226 1.0 5.0 0.00 0.00 0.00 26 1021.0
20210924194223 80 253 1.0 3.0 0.00 0.00 0.00 26 1021.1
20210924193722 80 43 1.0 5.0 0.00 0.00 0.00 26 1021.1
20210924193224 81 342 2.0 6.0 0.00 0.00 0.00 26 1021.2
20210924192722 80 47 3.0 7.0 0.00 0.00 0.00 26 1021.2
20210924192221 80 304 2.0 7.0 0.00 0.00 0.00 26 1021.4
20210924191727 81 68 1.0 6.0 0.00 0.00 0.00 26 1021.4
20210924191220 80 289 1.0 3.0 0.00 0.00 0.00 28 1021.5
20210924190722 79 41 1.0 4.0 0.00 0.00 0.00 28 1021.5
20210924190219 79 308 2.0 4.0 0.00 0.00 0.00 27 1021.6
20210924185719 79 50 1.0 4.0 0.00 0.00 0.00 27 1021.6
20210924185217 79 319 1.0 3.0 0.00 0.00 0.00 27 1021.7
20210924184716 80 283 1.0 3.0 0.00 0.00 0.00 27 1021.8
20210924184216 80 178 1.0 4.0 0.00 0.00 0.00 27 1021.9
20210924183718 79 281 1.0 4.0 0.00 0.00 0.00 28 1021.9
20210924183214 78 39 1.0 4.0 0.00 0.00 0.00 28 1022.1
20210924182715 78 304 1.0 4.0 0.00 0.00 0.00 28 1022.2
20210924182216 78 297 2.0 4.0 0.00 0.00 0.00 28 1022.2
20210924181715 78 304 2.0 3.0 0.00 0.00 0.00 28 1022.3
20210924181216 78 326 2.0 5.0 0.00 0.00 0.00 28 1022.3
20210924180714 79 270 2.0 5.0 0.00 0.00 0.00 27 1022.4
20210924180214 80 259 2.0 5.0 0.00 0.00 0.00 26 1022.4
20210924175714 80 198 1.0 3.0 0.00 0.00 0.00 27 1022.4
20210924175216 79 224 1.0 3.0 0.00 0.00 0.00 28 1022.5
20210924174714 79 283 0.0 2.0 0.00 0.00 0.00 28 1022.5
20210924174212 79 89 1.0 4.0 0.00 0.00 0.00 28 1022.6
20210924173713 78 149 1.0 5.0 0.00 0.00 0.00 29 1022.8
20210924173214 78 88 2.0 5.0 0.00 0.00 0.00 29 1022.8
20210924172713 78 126 1.0 5.0 0.00 0.00 0.00 30 1022.9
20210924172211 78 182 1.0 5.0 0.00 0.00 0.00 29 1022.9
20210924171712 78 174 2.0 5.0 0.00 0.00 0.00 29 1022.9
20210924171210 78 51 1.0 4.0 0.00 0.00 0.00 30 1023.0
20210924170710 76 246 1.0 4.0 0.00 0.00 0.00 33 1023.0
20210924170212 76 303 1.0 4.0 0.00 0.00 0.00 33 1023.0
20210924165710 77 281 1.0 3.0 0.00 0.00 0.00 31 1023.1
20210924165208 77 244 1.0 3.0 0.00 0.00 0.00 32 1023.1
20210924164708 76 96 1.0 3.0 0.00 0.00 0.00 32 1023.1
20210924164209 75 301 1.0 3.0 0.00 0.00 0.00 33 1023.2
20210924163709 76 184 1.0 3.0 0.00 0.00 0.00 32 1023.2
20210924163208 75 178 1.0 3.0 0.00 0.00 0.00 34 1023.3
20210924162708 74 154 1.0 4.0 0.00 0.00 0.00 36 1023.2
20210924162209 73 84 1.0 4.0 0.00 0.00 0.00 36 1023.2
20210924161709 73 65 1.0 3.0 0.00 0.00 0.00 36 1023.3
20210924161208 72 82 1.0 3.0 0.00 0.00 0.00 36 1023.2
20210924160709 72 103 1.0 2.0 0.00 0.00 0.00 37 1023.1
20210924160210 72 113 1.0 2.0 0.00 0.00 0.00 37 1023.1
20210924155709 72 89 0.0 2.0 0.00 0.00 0.00 37 1023.1
20210924155206 72 47 0.0 2.0 0.00 0.00 0.00 38 1023.1
20210924154706 72 321 0.0 1.0 0.00 0.00 0.00 38 1023.0
20210924154206 71 352 0.0 1.0 0.00 0.00 0.00 38 1022.9
20210924153708 71 352 0.0 2.0 0.00 0.00 0.00 38 1022.9
20210924153206 71 352 0.0 2.0 0.00 0.00 0.00 39 1022.9
20210924152704 70 38 0.0 2.0 0.00 0.00 0.00 40 1022.9
20210924152204 70 86 0.0 2.0 0.00 0.00 0.00 41 1022.8
20210924151705 69 84 1.0 3.0 0.00 0.00 0.00 41 1022.6
20210924151204 69 60 1.0 4.0 0.00 0.00 0.00 41 1022.6
20210924150704 69 72 1.0 4.0 0.00 0.00 0.00 42 1022.5
20210924150202 69 81 0.0 2.0 0.00 0.00 0.00 42 1022.4
20210924145705 69 98 1.0 4.0 0.00 0.00 0.00 43 1022.4
20210924145202 68 84 1.0 4.0 0.00 0.00 0.00 43 1022.4
20210924144702 68 85 1.0 4.0 0.00 0.00 0.00 44 1022.4
20210924144203 68 72 2.0 4.0 0.00 0.00 0.00 45 1022.4
20210924143702 67 85 1.0 3.0 0.00 0.00 0.00 47 1022.4
20210924143204 66 60 1.0 4.0 0.00 0.00 0.00 48 1022.4
20210924142702 65 80 1.0 4.0 0.00 0.00 0.00 49 1022.4
20210924142201 65 64 0.0 3.0 0.00 0.00 0.00 49 1022.4
20210924141701 65 106 0.0 2.0 0.00 0.00 0.00 49 1022.4
20210924141200 64 141 1.0 5.0 0.00 0.00 0.00 49 1022.4
20210924140700 64 117 1.0 5.0 0.00 0.00 0.00 49 1022.4
20210924140201 64 105 1.0 3.0 0.00 0.00 0.00 49 1022.5
20210924135700 64 117 0.0 2.0 0.00 0.00 0.00 49 1022.5
20210924135200 64 105 0.0 2.0 0.00 0.00 0.00 48 1022.4
20210924134702 64 146 0.0 1.0 0.00 0.00 0.00 48 1022.4
20210924134201 65 105 0.0 1.0 0.00 0.00 0.00 48 1022.4
20210924133700 64 108 0.0 1.0 0.00 0.00 0.00 50 1022.4
20210924133158 63 117 0.0 2.0 0.00 0.00 0.00 50 1022.4
20210924132658 62 119 0.0 2.0 0.00 0.00 0.00 51 1022.4
20210924132200 62 118 0.0 1.0 0.00 0.00 0.00 50 1022.3
20210924131659 63 152 0.0 0.0 0.00 0.00 0.00 49 1022.3
20210924131158 63 152 0.0 1.0 0.00 0.00 0.00 49 1022.3
20210924130658 64 152 1.0 3.0 0.00 0.00 0.00 48 1022.2
20210924130158 64 141 2.0 3.0 0.00 0.00 0.00 48 1022.1
20210924125659 64 166 2.0 5.0 0.00 0.00 0.00 48 1022.1
20210924125200 64 205 2.0 6.0 0.00 0.00 0.00 47 1022.1
20210924124657 64 141 3.0 7.0 0.00 0.00 0.00 47 1021.9
20210924124156 64 214 2.0 7.0 0.00 0.00 0.00 47 1021.8
20210924123658 64 175 2.0 5.0 0.00 0.00 0.00 48 1021.9
20210924123155 64 189 2.0 5.0 0.00 0.00 0.00 48 1021.9
20210924122655 64 191 1.0 4.0 0.00 0.00 0.00 48 1021.9
20210924122156 64 195 1.0 6.0 0.00 0.00 0.00 48 1021.9
20210924121655 64 153 1.0 6.0 0.00 0.00 0.00 48 1021.9
20210924121153 64 188 1.0 3.0 0.00 0.00 0.00 48 1021.8
20210924120654 64 188 1.0 3.0 0.00 0.00 0.00 48 1021.8
20210924120155 64 152 1.0 5.0 0.00 0.00 0.00 48 1021.7
20210924115653 63 143 1.0 5.0 0.00 0.00 0.00 49 1021.7
20210924115152 63 205 0.0 2.0 0.00 0.00 0.00 49 1021.7
20210924114652 63 197 0.0 2.0 0.00 0.00 0.00 49 1021.7
20210924114152 63 247 0.0 2.0 0.00 0.00 0.00 49 1021.6
20210924113652 63 181 0.0 2.0 0.00 0.00 0.00 50 1021.6
20210924113154 63 142 0.0 1.0 0.00 0.00 0.00 49 1021.5
20210924112652 63 142 0.0 0.0 0.00 0.00 0.00 49 1021.6
20210924112152 64 142 0.0 1.0 0.00 0.00 0.00 48 1021.6
20210924111652 65 148 0.0 1.0 0.00 0.00 0.00 47 1021.6
20210924111151 65 148 1.0 2.0 0.00 0.00 0.00 46 1021.6
20210924110651 65 146 2.0 4.0 0.00 0.00 0.00 45 1021.5
20210924110151 65 172 3.0 7.0 0.00 0.00 0.00 45 1021.6
20210924105650 65 188 3.0 7.0 0.00 0.00 0.00 45 1021.5
20210924105150 65 195 2.0 7.0 0.00 0.00 0.00 45 1021.4
20210924104650 65 191 2.0 4.0 0.00 0.00 0.00 44 1021.4
20210924104150 65 185 1.0 4.0 0.00 0.00 0.00 42 1021.2
20210924103651 65 143 0.0 1.0 0.00 0.00 0.00 40 1021.2
20210924103150 65 135 1.0 3.0 0.00 0.00 0.00 39 1021.1
20210924102651 65 158 1.0 3.0 0.00 0.00 0.00 39 1021.1
20210924102150 65 209 1.0 3.0 0.00 0.00 0.00 38 1021.1
20210924101649 65 188 1.0 5.0 0.00 0.00 0.00 37 1021.0
20210924101151 65 179 1.0 5.0 0.00 0.00 0.00 36 1021.1
20210924100652 66 179 1.0 3.0 0.00 0.00 0.00 36 1021.1
20210924100149 66 169 1.0 3.0 0.00 0.00 0.00 35 1021.0
20210924095650 66 141 1.0 4.0 0.00 0.00 0.00 35 1020.9
20210924095151 66 148 1.0 4.0 0.00 0.00 0.00 36 1020.9
20210924094651 66 153 0.0 2.0 0.00 0.00 0.00 36 1020.9
20210924094150 66 90 1.0 4.0 0.00 0.00 0.00 36 1020.8
20210924093650 66 148 1.0 4.0 0.00 0.00 0.00 36 1020.8
20210924093151 65 153 1.0 3.0 0.00 0.00 0.00 37 1020.7
20210924084147 66 155 0.0 0.0 0.00 0.00 0.00 36 1020.2
20210924083643 66 155 0.0 1.0 0.00 0.00 0.00 36 1020.2
20210924083141 66 156 0.0 1.0 0.00 0.00 0.00 36 1020.1
20210924082642 66 286 0.0 1.0 0.00 0.00 0.00 36 1020.0
20210924082142 67 288 0.0 1.0 0.00 0.00 0.00 35 1019.8
20210924081641 67 70 0.0 3.0 0.00 0.00 0.00 36 1019.8
20210924081143 67 70 1.0 3.0 0.00 0.00 0.00 34 1019.7
20210924080640 67 83 1.0 3.0 0.00 0.00 0.00 34 1019.6
20210924080137 67 86 0.0 3.0 0.00 0.00 0.00 35 1019.6
20210924075639 67 155 0.0 0.0 0.00 0.00 0.00 34 1019.6
20210924075138 67 155 0.0 0.0 0.00 0.00 0.00 34 1019.6
20210924074636 67 155 0.0 0.0 0.00 0.00 0.00 34 1019.6
20210924074135 68 155 0.0 0.0 0.00 0.00 0.00 33 1019.6
20210924073635 68 155 0.0 1.0 0.00 0.00 0.00 32 1019.5
20210924073131 69 155 0.0 1.0 0.00 0.00 0.00 32 1019.5
20210924072632 69 202 0.0 3.0 0.00 0.00 0.00 32 1019.6
20210924072130 69 202 1.0 6.0 0.00 0.00 0.00 32 1019.6
20210924071628 70 184 3.0 6.0 0.00 0.00 0.00 31 1019.6
20210924071129 70 165 3.0 6.0 0.00 0.00 0.00 31 1019.6
20210924070628 70 162 3.0 6.0 0.00 0.00 0.00 30 1019.5
20210924070126 70 161 2.0 5.0 0.00 0.00 0.00 30 1019.6
20210924065626 69 154 1.0 5.0 0.00 0.00 0.00 30 1019.5
20210924065126 69 130 1.0 4.0 0.00 0.00 0.00 31 1019.4
20210924064627 69 131 0.0 2.0 0.00 0.00 0.00 31 1019.3
20210924064128 70 142 0.0 2.0 0.00 0.00 0.00 30 1019.4
20210924063627 70 142 0.0 2.0 0.00 0.00 0.00 30 1019.3
20210924063127 70 149 0.0 1.0 0.00 0.00 0.00 30 1019.1
20210924062627 70 161 0.0 1.0 0.00 0.00 0.00 29 1019.1
20210924062127 70 147 0.0 4.0 0.00 0.00 0.00 29 1019.3
20210924061627 71 139 0.0 4.0 0.00 0.00 0.00 29 1019.4
20210924061125 71 136 1.0 3.0 0.00 0.00 0.00 28 1019.4
20210924060628 71 204 1.0 5.0 0.00 0.00 0.00 28 1019.4
20210924060123 71 144 2.0 5.0 0.00 0.00 0.00 28 1019.5
20210924055624 71 122 1.0 5.0 0.00 0.00 0.00 28 1019.6
20210924055123 71 142 0.0 3.0 0.00 0.00 0.00 27 1019.6
20210924054621 71 136 1.0 3.0 0.00 0.00 0.00 28 1019.5
20210924054121 71 203 1.0 2.0 0.00 0.00 0.00 28 1019.4
20210924053622 71 186 0.0 2.0 0.00 0.00 0.00 27 1019.3
20210924053121 71 130 0.0 2.0 0.00 0.00 0.00 27 1019.1
20210924052622 71 139 0.0 1.0 0.00 0.00 0.00 27 1019.1
20210924052123 71 131 0.0 1.0 0.00 0.00 0.00 27 1019.0
20210924051620 71 102 0.0 2.0 0.00 0.00 0.00 26 1018.9
20210924051119 71 103 1.0 4.0 0.00 0.00 0.00 26 1018.9
20210924050619 71 170 1.0 4.0 0.00 0.00 0.00 26 1019.0
20210924050116 71 143 0.0 3.0 0.00 0.00 0.00 26 1019.0
20210924045617 72 139 0.0 2.0 0.00 0.00 0.00 26 1018.9
20210924045117 72 128 1.0 4.0 0.00 0.00 0.00 25 1018.9
20210924044617 72 148 1.0 4.0 0.00 0.00 0.00 25 1018.8
20210924044117 72 149 1.0 3.0 0.00 0.00 0.00 25 1018.8
20210924043616 72 120 1.0 3.0 0.00 0.00 0.00 25 1018.8
20210924043117 72 133 1.0 3.0 0.00 0.00 0.00 25 1018.8
20210924042616 72 146 1.0 2.0 0.00 0.00 0.00 25 1018.8
20210924042114 72 148 1.0 3.0 0.00 0.00 0.00 25 1018.8
20210924041615 72 139 1.0 3.0 0.00 0.00 0.00 25 1018.7
20210924041115 71 148 0.0 3.0 0.00 0.00 0.00 25 1018.6
20210924040618 72 141 0.0 2.0 0.00 0.00 0.00 25 1018.6
20210924040118 72 139 0.0 2.0 0.00 0.00 0.00 25 1018.6
20210924035616 72 153 0.0 1.0 0.00 0.00 0.00 25 1018.6
20210924035117 72 143 0.0 2.0 0.00 0.00 0.00 25 1018.6
20210924034615 72 134 0.0 2.0 0.00 0.00 0.00 25 1018.4
20210924034115 72 138 0.0 3.0 0.00 0.00 0.00 25 1018.4
20210924033616 73 134 0.0 4.0 0.00 0.00 0.00 26 1018.4
20210924033113 73 144 1.0 4.0 0.00 0.00 0.00 26 1018.3
20210924032613 72 147 0.0 2.0 0.00 0.00 0.00 26 1018.4
20210924032113 72 150 0.0 2.0 0.00 0.00 0.00 27 1018.3
20210924031613 73 144 0.0 2.0 0.00 0.00 0.00 27 1018.3
20210924031113 73 165 0.0 0.0 0.00 0.00 0.00 27 1018.2
20210924030614 73 165 0.0 0.0 0.00 0.00 0.00 27 1018.2
20210924030114 74 165 0.0 0.0 0.00 0.00 0.00 26 1018.1
20210924025613 74 165 0.0 0.0 0.00 0.00 0.00 26 1018.1
20210924025111 74 165 0.0 1.0 0.00 0.00 0.00 26 1018.1
20210924024610 74 165 0.0 1.0 0.00 0.00 0.00 25 1018.0
20210924024112 74 176 0.0 1.0 0.00 0.00 0.00 25 1018.0
20210924023611 74 206 0.0 1.0 0.00 0.00 0.00 26 1017.9
20210924023112 74 206 0.0 1.0 0.00 0.00 0.00 26 1017.7
20210924022611 74 209 0.0 1.0 0.00 0.00 0.00 26 1017.9
20210924022112 74 210 0.0 1.0 0.00 0.00 0.00 26 1017.7
20210924021611 75 210 0.0 1.0 0.00 0.00 0.00 25 1017.7
20210924021110 75 210 0.0 1.0 0.00 0.00 0.00 25 1017.6
20210924020611 75 210 0.0 1.0 0.00 0.00 0.00 25 1017.5
20210924020112 75 210 0.0 1.0 0.00 0.00 0.00 25 1017.5
20210924015612 76 210 0.0 1.0 0.00 0.00 0.00 25 1017.5
20210924015111 76 210 0.0 2.0 0.00 0.00 0.00 25 1017.5
20210924014609 75 210 0.0 2.0 0.00 0.00 0.00 25 1017.5
20210924014107 75 168 0.0 1.0 0.00 0.00 0.00 25 1017.5
20210924013605 75 212 0.0 0.0 0.00 0.00 0.00 26 1017.4
20210924013104 75 212 0.0 0.0 0.00 0.00 0.00 26 1017.4
20210924012606 75 213 0.0 0.0 0.00 0.00 0.00 26 1017.4
20210924012105 76 213 0.0 0.0 0.00 0.00 0.00 26 1017.4
20210924011606 76 213 0.0 0.0 0.00 0.00 0.00 25 1017.4
20210924011105 76 213 0.0 0.0 0.00 0.00 0.00 25 1017.4
20210924010604 77 213 0.0 0.0 0.00 0.00 0.00 24 1017.4
20210924010102 77 213 0.0 0.0 0.00 0.00 0.00 23 1017.4
20210924005604 77 213 0.0 0.0 0.00 0.00 0.00 23 1017.4
20210924005104 78 213 0.0 1.0 0.00 0.00 0.00 23 1017.5
20210924004603 78 206 0.0 1.0 0.00 0.00 0.00 23 1017.5
20210924004103 78 205 0.0 1.0 0.00 0.00 0.00 22 1017.6
20210924003602 79 254 0.0 0.0 0.00 0.00 0.00 23 1017.5
20210924003104 80 202 0.0 0.0 0.00 0.00 0.00 23 1017.5
20210924002601 80 202 0.0 0.0 0.00 0.00 0.00 21 1017.5
20210924002100 80 202 0.0 0.0 0.00 0.00 0.00 21 1017.5
20210924001601 80 202 0.0 1.0 0.00 0.00 0.00 20 1017.5
20210924001059 81 202 0.0 1.0 0.00 0.00 0.00 19 1017.5
20210924000600 81 203 0.0 1.0 0.00 0.00 0.00 20 1017.5
20210924000058 81 153 0.0 1.0 0.00 0.00 0.00 21 1017.5
20210923235600 81 153 0.0 1.0 0.00 0.00 0.00 19 1017.5
20210923235058 81 153 0.0 1.0 0.00 0.00 0.00 19 1017.5
20210923234558 81 284 0.0 2.0 0.00 0.00 0.00 20 1017.5
20210923234057 82 285 0.0 2.0 0.00 0.00 0.00 20 1017.6
20210923233557 82 145 1.0 2.0 0.00 0.00 0.00 19 1017.5
20210923233100 82 197 1.0 2.0 0.00 0.00 0.00 18 1017.5
20210923232557 82 163 0.0 2.0 0.00 0.00 0.00 18 1017.5
20210923232057 83 131 0.0 1.0 0.00 0.00 0.00 19 1017.6
20210923231557 83 203 0.0 2.0 0.00 0.00 0.00 19 1017.6
20210923231056 83 204 1.0 3.0 0.00 0.00 0.00 18 1017.6
20210923230557 83 115 0.0 3.0 0.00 0.00 0.00 18 1017.7
20210923230057 83 238 0.0 2.0 0.00 0.00 0.00 18 1017.7
20210923225556 83 192 0.0 2.0 0.00 0.00 0.00 19 1017.9
20210923225056 83 136 0.0 1.0 0.00 0.00 0.00 19 1017.9
20210923224556 83 115 0.0 1.0 0.00 0.00 0.00 18 1017.9
20210923224057 83 115 1.0 2.0 0.00 0.00 0.00 18 1017.9
20210923223558 83 143 0.0 2.0 0.00 0.00 0.00 19 1018.0
20210923223056 83 212 0.0 2.0 0.00 0.00 0.00 20 1018.0
20210923222557 83 0 0.0 4.0 0.00 0.00 0.00 19 1018.0
20210923222056 83 1 0.0 4.0 0.00 0.00 0.00 19 1018.0
20210923221558 84 82 0.0 2.0 0.00 0.00 0.00 18 1018.0
20210923221058 84 203 0.0 2.0 0.00 0.00 0.00 18 1018.1
20210923220558 85 218 0.0 2.0 0.00 0.00 0.00 19 1018.1
20210923220057 84 153 1.0 2.0 0.00 0.00 0.00 19 1018.1
20210923215557 84 226 1.0 2.0 0.00 0.00 0.00 19 1018.2
20210923215056 84 110 1.0 5.0 0.00 0.00 0.00 18 1018.2
20210923214556 84 158 1.0 5.0 0.00 0.00 0.00 18 1018.3
20210923214057 85 149 1.0 5.0 0.00 0.00 0.00 18 1018.3
20210923213556 85 204 1.0 6.0 0.00 0.00 0.00 19 1018.3
20210923213056 84 190 1.0 6.0 0.00 0.00 0.00 18 1018.4